{"data":{"norad_id":66932,"epoch":"2026-05-24T23:43:43.396608Z","epoch_age_seconds":69839,"freshness":"FRESH","line1":"1 66932U 25286H   26144.98869672  .00020892  00000+0  62761-3 0  9996","line2":"2 66932  53.1607   3.6883 0001211  71.0937 289.0197 15.34406453 27101","mean_motion":15.34406453,"eccentricity":0.0001211,"inclination_deg":53.1607,"raan_deg":3.6883,"arg_perigee_deg":71.0937,"mean_anomaly_deg":289.0197,"bstar":0.00062761,"rev_number":2710,"period_min":93.847363401306,"perigee_km":461.85563716798,"apogee_km":463.51248402885,"semimajor_km":6840.8210605984,"source":"CELESTRAK","updated_at":"2026-05-25T13:38:21.386170Z"}}